[keps] orb08073.amsat
Ray Hoad
r.hoad at att.net
Thu Mar 13 18:43:06 PST 2008
SB KEPS @ AMSAT $ORB08073.O
Orbital Elements 08073.OSCAR
HR AMSAT ORBITAL ELEMENTS FOR OSCAR SATELLITES
FROM WA5QGD FORT WORTH,TX March 13, 2008
Send Subscribe/unsubscribe to KEPS at
http://www.amsat.org/mailman/listinfo/keps
BID: ORB08073.O
TO ALL RADIO AMATEURS BT
Satellite: AO-07
Catalog number: 07530
Epoch time: 08073.68549084
Element set: 125
Inclination: 101.4789 deg
RA of node: 108.3395 deg
Eccentricity: 0.0012146
Arg of perigee: 089.3977 deg
Mean anomaly: 270.8487 deg
Mean motion: 12.53573682 rev/day
Decay rate: -2.7e-07 rev/day^2
Epoch rev: 52501
Checksum: 320
Satellite: AO-10
Catalog number: 14129
Epoch time: 08073.57673823
Element set: 483
Inclination: 025.9232 deg
RA of node: 225.7295 deg
Eccentricity: 0.6019596
Arg of perigee: 106.5118 deg
Mean anomaly: 324.4173 deg
Mean motion: 02.05869743 rev/day
Decay rate: 7.2e-07 rev/day^2
Epoch rev: 18613
Checksum: 312
Satellite: UO-11
Catalog number: 14781
Epoch time: 08072.27897199
Element set: 0618
Inclination: 098.1664 deg
RA of node: 104.8112 deg
Eccentricity: 0.0009549
Arg of perigee: 031.9443 deg
Mean anomaly: 328.2345 deg
Mean motion: 14.79625177 rev/day
Decay rate: 3.24e-06 rev/day^2
Epoch rev: 28952
Checksum: 330
Satellite: RS-15
Catalog number: 23439
Epoch time: 08072.96059106
Element set: 0144
Inclination: 064.8187 deg
RA of node: 290.6599 deg
Eccentricity: 0.0150043
Arg of perigee: 141.0497 deg
Mean anomaly: 220.1348 deg
Mean motion: 11.27551702 rev/day
Decay rate: -3.9e-07 rev/day^2
Epoch rev: 54411
Checksum: 292
Satellite: FO-29
Catalog number: 24278
Epoch time: 08073.79784756
Element set: 724
Inclination: 098.5859 deg
RA of node: 002.5685 deg
Eccentricity: 0.0351318
Arg of perigee: 102.4571 deg
Mean anomaly: 261.6109 deg
Mean motion: 13.52935882 rev/day
Decay rate: 3.3e-07 rev/day^2
Epoch rev: 57149
Checksum: 343
Satellite: SO-33
Catalog number: 25509
Epoch time: 08072.51947921
Element set: 0152
Inclination: 031.4324 deg
RA of node: 142.9386 deg
Eccentricity: 0.0355263
Arg of perigee: 262.0514 deg
Mean anomaly: 093.9645 deg
Mean motion: 14.28200922 rev/day
Decay rate: 7.2e-07 rev/day^2
Epoch rev: 48978
Checksum: 306
Satellite: AO-40
Catalog number: 26609
Epoch time: 08072.46986890
Element set: 21
Inclination: 007.4844 deg
RA of node: 093.3400 deg
Eccentricity: 0.7922017
Arg of perigee: 060.4790 deg
Mean anomaly: 355.1171 deg
Mean motion: 01.25581731 rev/day
Decay rate: -3.49e-06 rev/day^2
Epoch rev: 3382
Checksum: 296
Satellite: VO-52
Catalog number: 28650
Epoch time: 08072.34772172
Element set: 0879
Inclination: 097.7978 deg
RA of node: 141.5780 deg
Eccentricity: 0.0028427
Arg of perigee: 096.7664 deg
Mean anomaly: 263.6850 deg
Mean motion: 14.81431366 rev/day
Decay rate: 1.81e-06 rev/day^2
Epoch rev: 15426
Checksum: 341
Satellite: PO-63
Catalog number: 29712
Epoch time: 08073.70088411
Element set: 266
Inclination: 097.8858 deg
RA of node: 133.6448 deg
Eccentricity: 0.0013690
Arg of perigee: 336.3346 deg
Mean anomaly: 023.7225 deg
Mean motion: 14.80054613 rev/day
Decay rate: 4.83e-06 rev/day^2
Epoch rev: 6334
Checksum: 306
/EX
SB KEPS @ AMSAT $ORB08073.D
Orbital Elements 08073.MICROS
HR AMSAT ORBITAL ELEMENTS FOR THE MICROSATS
FROM WA5QGD FORT WORTH,TX March 13, 2008
Send Subscribe/unsubscribe to KEPS at
http://www.amsat.org/mailman/listinfo/keps
BID: ORB08073.D
TO ALL RADIO AMATEURS BT
Satellite: AO-16
Catalog number: 20439
Epoch time: 08072.91194732
Element set: 0273
Inclination: 098.2220 deg
RA of node: 057.9345 deg
Eccentricity: 0.0011802
Arg of perigee: 101.1428 deg
Mean anomaly: 259.1079 deg
Mean motion: 14.31786596 rev/day
Decay rate: -3.0e-08 rev/day^2
Epoch rev: 94714
Checksum: 299
Satellite: LO-19
Catalog number: 20442
Epoch time: 08072.55601751
Element set: 0198
Inclination: 098.1960 deg
RA of node: 066.4121 deg
Eccentricity: 0.0012913
Arg of perigee: 101.7130 deg
Mean anomaly: 258.5505 deg
Mean motion: 14.32025541 rev/day
Decay rate: 4.0e-08 rev/day^2
Epoch rev: 94724
Checksum: 268
Satellite: AO-27
Catalog number: 22825
Epoch time: 08072.52027396
Element set: 0920
Inclination: 098.3745 deg
RA of node: 036.2238 deg
Eccentricity: 0.0008249
Arg of perigee: 180.4041 deg
Mean anomaly: 179.7151 deg
Mean motion: 14.29231747 rev/day
Decay rate: -1.12e-06 rev/day^2
Epoch rev: 75396
Checksum: 307
Satellite: IO-26
Catalog number: 22826
Epoch time: 08072.94107672
Element set: 0624
Inclination: 098.3658 deg
RA of node: 037.5817 deg
Eccentricity: 0.0008760
Arg of perigee: 176.4365 deg
Mean anomaly: 183.6886 deg
Mean motion: 14.29480392 rev/day
Decay rate: -1.5e-07 rev/day^2
Epoch rev: 75411
Checksum: 334
Satellite: PO-28
Catalog number: 22829
Epoch time: 08072.48503248
Element set: 0896
Inclination: 098.3550 deg
RA of node: 038.2653 deg
Eccentricity: 0.0009997
Arg of perigee: 150.1885 deg
Mean anomaly: 209.9878 deg
Mean motion: 14.30182952 rev/day
Decay rate: 1.09e-06 rev/day^2
Epoch rev: 75430
Checksum: 343
Satellite: GO-32
Catalog number: 25397
Epoch time: 08072.22728217
Element set: 0549
Inclination: 098.3767 deg
RA of node: 112.1247 deg
Eccentricity: 0.0001704
Arg of perigee: 135.1617 deg
Mean anomaly: 224.9704 deg
Mean motion: 14.23139973 rev/day
Decay rate: 4.7e-07 rev/day^2
Epoch rev: 50242
Checksum: 296
Satellite: MO-46
Catalog number: 26548
Epoch time: 08072.48265399
Element set: 0047
Inclination: 064.5566 deg
RA of node: 069.5015 deg
Eccentricity: 0.0018874
Arg of perigee: 337.3042 deg
Mean anomaly: 022.7237 deg
Mean motion: 14.83234574 rev/day
Decay rate: -1.1e-07 rev/day^2
Epoch rev: 40347
Checksum: 313
Satellite: NO-44
Catalog number: 26931
Epoch time: 08072.73485448
Element set: 0829
Inclination: 067.0530 deg
RA of node: 173.1277 deg
Eccentricity: 0.0005142
Arg of perigee: 276.9499 deg
Mean anomaly: 083.1029 deg
Mean motion: 14.29513798 rev/day
Decay rate: -1.22e-06 rev/day^2
Epoch rev: 33662
Checksum: 323
Satellite: SO-50
Catalog number: 27607
Epoch time: 08071.74364814
Element set: 0551
Inclination: 064.5623 deg
RA of node: 349.5680 deg
Eccentricity: 0.0081697
Arg of perigee: 298.8189 deg
Mean anomaly: 060.4731 deg
Mean motion: 14.71334645 rev/day
Decay rate: 6.2e-07 rev/day^2
Epoch rev: 28063
Checksum: 325
Satellite: CO-55
Catalog number: 27844
Epoch time: 08072.94257333
Element set: 0257
Inclination: 098.7189 deg
RA of node: 082.5364 deg
Eccentricity: 0.0010618
Arg of perigee: 037.6076 deg
Mean anomaly: 322.5829 deg
Mean motion: 14.20565230 rev/day
Decay rate: 5.3e-07 rev/day^2
Epoch rev: 24377
Checksum: 318
Satellite: CO-57
Catalog number: 27848
Epoch time: 08072.92777620
Element set: 0210
Inclination: 098.7196 deg
RA of node: 081.6378 deg
Eccentricity: 0.0010429
Arg of perigee: 040.6776 deg
Mean anomaly: 319.5173 deg
Mean motion: 14.20376343 rev/day
Decay rate: 1.5e-07 rev/day^2
Epoch rev: 24374
Checksum: 319
Satellite: AO-51
Catalog number: 28375
Epoch time: 08072.64415909
Element set: 0052
Inclination: 098.0820 deg
RA of node: 102.6010 deg
Eccentricity: 0.0084970
Arg of perigee: 085.2852 deg
Mean anomaly: 275.8037 deg
Mean motion: 14.40599455 rev/day
Decay rate: 1.1e-07 rev/day^2
Epoch rev: 19450
Checksum: 298
Satellite: CO-56
Catalog number: 28941
Epoch time: 08073.80238799
Element set: 901
Inclination: 098.1030 deg
RA of node: 171.8968 deg
Eccentricity: 0.0183706
Arg of perigee: 026.9257 deg
Mean anomaly: 334.1262 deg
Mean motion: 15.51877395 rev/day
Decay rate: 2.6645e-04 rev/day^2
Epoch rev: 11522
Checksum: 340
Satellite: CP4
Catalog number: 31122
Epoch time: 08072.75503570
Element set: 283
Inclination: 098.0506 deg
RA of node: 141.8864 deg
Eccentricity: 0.0084404
Arg of perigee: 268.1429 deg
Mean anomaly: 091.0073 deg
Mean motion: 14.55096367 rev/day
Decay rate: 5.49e-06 rev/day^2
Epoch rev: 4805
Checksum: 297
Satellite: CP3
Catalog number: 31128
Epoch time: 08073.68210796
Element set: 280
Inclination: 098.0498 deg
RA of node: 141.1190 deg
Eccentricity: 0.0101811
Arg of perigee: 270.0099 deg
Mean anomaly: 088.9442 deg
Mean motion: 14.51922038 rev/day
Decay rate: -4.8e-07 rev/day^2
Epoch rev: 4807
Checksum: 291
Satellite: LIBERT
Catalog number: 31129
Epoch time: 08073.66206968
Element set: 815
Inclination: 098.0488 deg
RA of node: 141.1315 deg
Eccentricity: 0.0101242
Arg of perigee: 270.0581 deg
Mean anomaly: 088.9001 deg
Mean motion: 14.52011177 rev/day
Decay rate: 3.36e-06 rev/day^2
Epoch rev: 4805
Checksum: 270
/EX
SB KEPS @ AMSAT $ORB08073.W
Orbital Elements 08073.WEATHER
HR AMSAT ORBITAL ELEMENTS FOR WEATHER SATELLITES
FROM WA5QGD FORT WORTH,TX March 13, 2008
Send Subscribe/unsubscribe to KEPS at
http://www.amsat.org/mailman/listinfo/keps
BID: ORB08073.W
TO ALL RADIO AMATEURS BT
Satellite: NOAA-10
Catalog number: 16969
Epoch time: 08072.90834617
Element set: 0043
Inclination: 098.7310 deg
RA of node: 095.0356 deg
Eccentricity: 0.0013202
Arg of perigee: 101.4210 deg
Mean anomaly: 258.8439 deg
Mean motion: 14.27352602 rev/day
Decay rate: -6.4e-07 rev/day^2
Epoch rev: 11770
Checksum: 276
Satellite: NOAA-11
Catalog number: 19531
Epoch time: 08072.85049678
Element set: 0080
Inclination: 098.7968 deg
RA of node: 163.5246 deg
Eccentricity: 0.0011306
Arg of perigee: 347.0152 deg
Mean anomaly: 013.0709 deg
Mean motion: 14.14868419 rev/day
Decay rate: 5.1e-07 rev/day^2
Epoch rev: 00428
Checksum: 297
Satellite: NOAA-12
Catalog number: 21263
Epoch time: 08072.97269554
Element set: 0588
Inclination: 098.7673 deg
RA of node: 074.9350 deg
Eccentricity: 0.0013184
Arg of perigee: 048.1645 deg
Mean anomaly: 312.0698 deg
Mean motion: 14.25520949 rev/day
Decay rate: 1.19e-06 rev/day^2
Epoch rev: 87468
Checksum: 339
Satellite: MET-3/5
Catalog number: 21655
Epoch time: 08072.93997890
Element set: 0476
Inclination: 082.5608 deg
RA of node: 172.3703 deg
Eccentricity: 0.0012251
Arg of perigee: 252.1959 deg
Mean anomaly: 107.7827 deg
Mean motion: 13.17013214 rev/day
Decay rate: 5.1e-07 rev/day^2
Epoch rev: 79691
Checksum: 315
